{"data":{"norad_id":67835,"intl_designator":"2026-033Q","name":"STARLINK-36657","alt_names":[],"object_type":"PAYLOAD","status":"ACTIVE","operator":null,"country":"US","launch_date":"2026-02-16","launch_site_code":"AFETR","launch_vehicle":null,"mission":null,"orbit_class":"UNKNOWN","rcs_meters":null,"size_class":null,"mass_kg":null,"dimensions":null,"purposes":["comms"],"wikipedia_slug":null,"has_3d_model":false,"image_url":null,"decayed_at":null,"tle_current":{"epoch":"2026-05-24T20:13:08.864544Z","epoch_age_seconds":88667,"freshness":"FRESH","line1":"1 67835U 26033Q   26144.84246371 -.00005085  00000+0 -17545-3 0  9999","line2":"2 67835  42.9993 196.7080 0001546 272.0250  88.0424 15.27569632 16326","mean_motion":15.27569632,"eccentricity":0.0001546,"inclination_deg":42.9993,"raan_deg":196.708,"arg_perigee_deg":272.025,"mean_anomaly_deg":88.0424,"bstar":-0.00017545,"rev_number":1632,"period_min":94.267388525828,"perigee_km":482.019397567,"apogee_km":484.14088590723,"semimajor_km":6861.2171417371,"source":"CELESTRAK","updated_at":"2026-05-25T13:38:21.700383Z"}}}